Dades meteomassalio
Diari Summary for Octubre 23, 2017 Units:  Metric    English   Both
« Previous Day
Next Day »
Diari Semanal Mensual Anual Personalitzat
  Maxima: Minima: Mijana:
Temperatura: 21.1 °C 3.3 °C 11.7 °C
Rosada: 7.1 °C -1.5 °C 3.4 °C
Humitat: 83 % 32 % 59 %
Velocitat del vent: 31.5 km/h 0.0 km/h 11 km/h
Racha vent: 31.5 km/h - -
Vent:- - SSW
Pressio: 1030.0 hPa 1026.3 hPa -
Pluja: 0.0 mm    
Historical Graphs
 
 
Tabular Data for Octubre 23, 2017
Time Temperature Dew Point Pressure Wind Wind Speed Wind Gust Humidity Rainfall Rate (Hourly) solar Conditions
00:03 10.6 °C 4.7 °C 1029.3 hPa SSW 20.4 km/h 20.4 km/h 67 % 0.0 mm 0.0 W/m2 CLR
00:08 10.6 °C 4.7 °C 1029.7 hPa SSW 20.4 km/h 20.4 km/h 67 % 0.0 mm 0.0 W/m2 CLR
00:13 11.7 °C 5.7 °C 1029.3 hPa South 24.1 km/h 24.1 km/h 67 % 0.0 mm 0.0 W/m2 CLR
00:18 11.1 °C 5.4 °C 1029.3 hPa South 18.5 km/h 18.5 km/h 68 % 0.0 mm 0.0 W/m2 CLR
00:23 11.1 °C 5.4 °C 1029.3 hPa SSW 18.5 km/h 18.5 km/h 68 % 0.0 mm 0.0 W/m2 CLR
00:28 11.1 °C 5.4 °C 1029.3 hPa SSE 20.4 km/h 20.4 km/h 68 % 0.0 mm 0.0 W/m2 CLR
00:33 10.6 °C 4.9 °C 1029.3 hPa South 18.5 km/h 18.5 km/h 68 % 0.0 mm 0.0 W/m2 CLR
00:38 10.6 °C 4.9 °C 1029.3 hPa South 18.5 km/h 18.5 km/h 68 % 0.0 mm 0.0 W/m2 CLR
00:43 10.6 °C 4.9 °C 1029.3 hPa South 18.5 km/h 18.5 km/h 68 % 0.0 mm 0.0 W/m2 CLR
00:48 10.6 °C 4.9 °C 1029.3 hPa SSW 16.7 km/h 16.7 km/h 68 % 0.0 mm 0.0 W/m2 CLR
00:53 10.6 °C 4.9 °C 1029.3 hPa South 18.5 km/h 18.5 km/h 68 % 0.0 mm 0.0 W/m2 CLR
00:58 11.1 °C 5.4 °C 1029.3 hPa SE 14.8 km/h 14.8 km/h 68 % 0.0 mm 0.0 W/m2 CLR
01:03 11.7 °C 5.9 °C 1029.7 hPa SSE 5.6 km/h 5.6 km/h 68 % 0.0 mm 0.0 W/m2 CLR
01:08 12.2 °C 6.5 °C 1029.3 hPa SSE 8.0 km/h 8.0 km/h 68 % 0.0 mm 0.0 W/m2 CLR
01:13 12.2 °C 6.5 °C 1029.3 hPa South 9.3 km/h 9.3 km/h 68 % 0.0 mm 0.0 W/m2 CLR
01:18 11.7 °C 6.2 °C 1029.3 hPa SSW 11.1 km/h 11.1 km/h 69 % 0.0 mm 0.0 W/m2 CLR
01:23 11.7 °C 6.2 °C 1029.0 hPa SSW 14.5 km/h 14.5 km/h 69 % 0.0 mm 0.0 W/m2 CLR
01:28 11.1 °C 5.8 °C 1029.0 hPa SSW 18.5 km/h 18.5 km/h 70 % 0.0 mm 0.0 W/m2 CLR
01:33 11.1 °C 5.6 °C 1029.0 hPa SSW 16.7 km/h 16.7 km/h 69 % 0.0 mm 0.0 W/m2 CLR
01:38 11.1 °C 5.6 °C 1029.0 hPa South 18.5 km/h 18.5 km/h 69 % 0.0 mm 0.0 W/m2 CLR
01:43 11.1 °C 5.6 °C 1029.0 hPa South 24.1 km/h 24.1 km/h 69 % 0.0 mm 0.0 W/m2 CLR
01:48 11.7 °C 5.9 °C 1029.0 hPa SE 13.0 km/h 13.0 km/h 68 % 0.0 mm 0.0 W/m2 CLR
01:53 11.7 °C 6.2 °C 1029.0 hPa South 9.3 km/h 9.3 km/h 69 % 0.0 mm 0.0 W/m2 CLR
01:58 11.7 °C 6.4 °C 1029.0 hPa South 16.7 km/h 16.7 km/h 70 % 0.0 mm 0.0 W/m2 CLR
02:03 11.1 °C 5.8 °C 1029.0 hPa South 13.0 km/h 13.0 km/h 70 % 0.0 mm 0.0 W/m2 CLR
02:08 11.1 °C 5.8 °C 1029.0 hPa SSE 7.4 km/h 7.4 km/h 70 % 0.0 mm 0.0 W/m2 CLR
02:13 10.6 °C 5.3 °C 1029.0 hPa South 11.1 km/h 11.1 km/h 70 % 0.0 mm 0.0 W/m2 CLR
02:18 10.6 °C 5.5 °C 1029.0 hPa SSW 14.8 km/h 14.8 km/h 71 % 0.0 mm 0.0 W/m2 CLR
02:23 10.6 °C 5.5 °C 1029.0 hPa SSW 18.5 km/h 18.5 km/h 71 % 0.0 mm 0.0 W/m2 CLR
02:28 10.6 °C 5.3 °C 1029.0 hPa South 16.7 km/h 16.7 km/h 70 % 0.0 mm 0.0 W/m2 CLR
02:33 10.6 °C 5.5 °C 1028.7 hPa SSW 13.0 km/h 13.0 km/h 71 % 0.0 mm 0.0 W/m2 CLR
02:38 10.6 °C 5.5 °C 1028.7 hPa SSE 13.0 km/h 13.0 km/h 71 % 0.0 mm 0.0 W/m2 CLR
02:43 10.6 °C 5.5 °C 1028.7 hPa South 18.5 km/h 18.5 km/h 71 % 0.0 mm 0.0 W/m2 CLR
02:48 10.6 °C 5.5 °C 1028.7 hPa SSW 13.0 km/h 13.0 km/h 71 % 0.0 mm 0.0 W/m2 CLR
02:53 10.0 °C 5.0 °C 1028.7 hPa SSE 14.8 km/h 14.8 km/h 71 % 0.0 mm 0.0 W/m2 CLR
02:58 10.0 °C 5.0 °C 1028.7 hPa South 9.3 km/h 9.3 km/h 71 % 0.0 mm 0.0 W/m2 CLR
03:03 10.0 °C 5.2 °C 1028.7 hPa South 18.5 km/h 18.5 km/h 72 % 0.0 mm 0.0 W/m2 CLR
03:08 9.4 °C 4.4 °C 1028.7 hPa South 20.4 km/h 20.4 km/h 71 % 0.0 mm 0.0 W/m2 CLR
03:09 9.4 °C 4.4 °C 1028.7 hPa South 18.5 km/h 18.5 km/h 71 % 0.0 mm 0.0 W/m2 CLR
03:14 9.4 °C 4.4 °C 1028.7 hPa South 16.7 km/h 16.7 km/h 71 % 0.0 mm 0.0 W/m2 CLR
03:19 10.0 °C 5.0 °C 1028.7 hPa SSW 16.7 km/h 16.7 km/h 71 % 0.0 mm 0.0 W/m2 CLR
03:24 10.0 °C 5.0 °C 1028.7 hPa SSW 13.0 km/h 13.0 km/h 71 % 0.0 mm 0.0 W/m2 CLR
03:29 10.0 °C 5.2 °C 1028.7 hPa SSW 16.7 km/h 16.7 km/h 72 % 0.0 mm 0.0 W/m2 CLR
03:34 10.0 °C 5.2 °C 1028.7 hPa SSW 16.7 km/h 16.7 km/h 72 % 0.0 mm 0.0 W/m2 CLR
03:39 10.0 °C 5.0 °C 1028.7 hPa South 14.8 km/h 14.8 km/h 71 % 0.0 mm 0.0 W/m2 CLR
03:44 10.0 °C 5.2 °C 1028.7 hPa SSW 16.7 km/h 16.7 km/h 72 % 0.0 mm 0.0 W/m2 CLR
03:49 9.4 °C 4.7 °C 1028.7 hPa South 14.8 km/h 14.8 km/h 72 % 0.0 mm 0.0 W/m2 CLR
03:54 9.4 °C 4.7 °C 1028.7 hPa South 16.7 km/h 16.7 km/h 72 % 0.0 mm 0.0 W/m2 CLR
03:59 9.4 °C 4.7 °C 1028.7 hPa South 14.5 km/h 14.5 km/h 72 % 0.0 mm 0.0 W/m2 CLR
04:04 9.4 °C 4.7 °C 1028.7 hPa South 16.7 km/h 16.7 km/h 72 % 0.0 mm 0.0 W/m2 CLR
04:09 9.4 °C 4.7 °C 1028.7 hPa South 13.0 km/h 13.0 km/h 72 % 0.0 mm 0.0 W/m2 CLR
04:14 8.9 °C 4.1 °C 1028.7 hPa South 14.8 km/h 14.8 km/h 72 % 0.0 mm 0.0 W/m2 CLR
04:19 8.9 °C 3.9 °C 1028.7 hPa SSW 13.0 km/h 13.0 km/h 71 % 0.0 mm 0.0 W/m2 CLR
04:24 8.9 °C 3.9 °C 1028.7 hPa SSW 13.0 km/h 13.0 km/h 71 % 0.0 mm 0.0 W/m2 CLR
04:29 8.9 °C 3.7 °C 1028.7 hPa South 11.1 km/h 11.1 km/h 70 % 0.0 mm 0.0 W/m2 CLR
04:34 8.9 °C 3.7 °C 1029.0 hPa SSE 11.1 km/h 11.1 km/h 70 % 0.0 mm 0.0 W/m2 CLR
04:39 8.3 °C 3.2 °C 1028.7 hPa SSW 11.1 km/h 11.1 km/h 70 % 0.0 mm 0.0 W/m2 CLR
04:44 8.3 °C 3.2 °C 1028.7 hPa SSW 9.3 km/h 9.3 km/h 70 % 0.0 mm 0.0 W/m2 CLR
04:49 7.8 °C 2.7 °C 1028.7 hPa South 13.0 km/h 13.0 km/h 70 % 0.0 mm 0.0 W/m2 CLR
04:54 7.8 °C 2.7 °C 1029.0 hPa South 9.7 km/h 9.7 km/h 70 % 0.0 mm 0.0 W/m2 CLR
04:59 7.2 °C 2.1 °C 1029.0 hPa SSE 9.3 km/h 9.3 km/h 70 % 0.0 mm 0.0 W/m2 CLR
05:04 7.2 °C 2.3 °C 1028.7 hPa South 7.4 km/h 7.4 km/h 71 % 0.0 mm 0.0 W/m2 CLR
05:09 6.7 °C 2.0 °C 1028.7 hPa South 8.0 km/h 8.0 km/h 72 % 0.0 mm 0.0 W/m2 CLR
05:14 6.7 °C 2.0 °C 1028.7 hPa South 9.3 km/h 9.3 km/h 72 % 0.0 mm 0.0 W/m2 CLR
05:19 6.1 °C 1.4 °C 1028.7 hPa SSE 7.4 km/h 7.4 km/h 72 % 0.0 mm 0.0 W/m2 CLR
05:20 6.1 °C 1.4 °C 1028.7 hPa SSE 8.0 km/h 8.0 km/h 72 % 0.0 mm 0.0 W/m2 CLR
05:25 6.1 °C 1.6 °C 1028.7 hPa SSE 9.7 km/h 9.7 km/h 73 % 0.0 mm 0.0 W/m2 CLR
05:30 5.6 °C 1.3 °C 1028.7 hPa South 14.8 km/h 14.8 km/h 74 % 0.0 mm 0.0 W/m2 CLR
05:35 5.6 °C 1.3 °C 1028.7 hPa South 9.3 km/h 9.3 km/h 74 % 0.0 mm 0.0 W/m2 CLR
05:40 5.6 °C 1.3 °C 1028.7 hPa South 9.3 km/h 9.3 km/h 74 % 0.0 mm 0.0 W/m2 CLR
05:45 5.0 °C 0.7 °C 1028.7 hPa South 9.3 km/h 9.3 km/h 74 % 0.0 mm 0.0 W/m2 CLR
05:50 5.0 °C 0.7 °C 1028.7 hPa South 8.0 km/h 8.0 km/h 74 % 0.0 mm 0.0 W/m2 CLR
05:55 5.0 °C 0.9 °C 1028.7 hPa SSW 11.1 km/h 11.1 km/h 75 % 0.0 mm 0.0 W/m2 CLR
06:00 5.0 °C 0.7 °C 1029.0 hPa South 9.3 km/h 9.3 km/h 74 % 0.0 mm 0.0 W/m2 CLR
06:05 5.0 °C 0.6 °C 1028.7 hPa SSE 8.0 km/h 8.0 km/h 73 % 0.0 mm 0.0 W/m2 CLR
06:10 5.0 °C 0.6 °C 1029.0 hPa SSE 7.4 km/h 7.4 km/h 73 % 0.0 mm 0.0 W/m2 CLR
06:15 5.0 °C 0.6 °C 1029.0 hPa SSE 8.0 km/h 8.0 km/h 73 % 0.0 mm 0.0 W/m2 CLR
06:20 5.0 °C 1.1 °C 1029.0 hPa South 11.3 km/h 11.3 km/h 76 % 0.0 mm 0.0 W/m2 CLR
06:25 5.0 °C 1.1 °C 1029.0 hPa South 13.0 km/h 13.0 km/h 76 % 0.0 mm 0.0 W/m2 CLR
06:30 5.0 °C 0.9 °C 1029.0 hPa SSE 8.0 km/h 8.0 km/h 75 % 0.0 mm 0.0 W/m2 CLR
06:35 5.0 °C 0.9 °C 1029.0 hPa SSE 9.3 km/h 9.3 km/h 75 % 0.0 mm 0.0 W/m2 CLR
06:40 4.4 °C 0.6 °C 1029.0 hPa South 11.3 km/h 11.3 km/h 76 % 0.0 mm 0.0 W/m2 CLR
06:45 4.4 °C 0.9 °C 1029.0 hPa South 13.0 km/h 13.0 km/h 78 % 0.0 mm 0.0 W/m2 CLR
06:50 4.4 °C 0.6 °C 1029.0 hPa South 9.3 km/h 9.3 km/h 76 % 0.0 mm 0.0 W/m2 CLR
06:55 4.4 °C 0.6 °C 1028.7 hPa South 9.7 km/h 9.7 km/h 76 % 0.0 mm 0.0 W/m2 CLR
07:00 4.4 °C 0.8 °C 1028.7 hPa South 11.1 km/h 11.1 km/h 77 % 0.0 mm 0.0 W/m2 CLR
07:05 3.9 °C 0.1 °C 1028.7 hPa South 11.1 km/h 11.1 km/h 76 % 0.0 mm 0.0 W/m2 CLR
07:10 3.9 °C -0.5 °C 1028.7 hPa South 3.7 km/h   73 % 0.0 mm 0.0 W/m2 CLR
07:15 3.9 °C -0.3 °C 1028.7 hPa Calm     74 % 0.0 mm 0.0 W/m2 CLR
07:20 3.9 °C 0.1 °C 1029.0 hPa South 3.2 km/h 3.2 km/h 76 % 0.0 mm 0.0 W/m2 CLR
07:25 3.9 °C 0.8 °C 1029.0 hPa South 13.0 km/h 13.0 km/h 80 % 0.0 mm 0.0 W/m2 CLR
07:30 3.9 °C 0.4 °C 1029.0 hPa South 11.1 km/h 11.1 km/h 78 % 0.0 mm 0.0 W/m2 CLR
07:35 3.9 °C 0.1 °C 1029.0 hPa Calm     76 % 0.0 mm 0.0 W/m2 CLR
07:40 3.9 °C 0.2 °C 1029.0 hPa Calm     77 % 0.0 mm 0.0 W/m2 CLR
07:45 3.9 °C 0.6 °C 1029.0 hPa Calm     79 % 0.0 mm 0.0 W/m2 CLR
07:50 3.9 °C 0.8 °C 1029.0 hPa Calm     80 % 0.0 mm 0.0 W/m2 CLR
07:55 3.9 °C 0.9 °C 1029.0 hPa Calm     81 % 0.0 mm 0.0 W/m2 CLR
08:00 3.9 °C 0.9 °C 1029.0 hPa Calm     81 % 0.0 mm 0.0 W/m2 CLR
08:05 3.9 °C 0.9 °C 1029.0 hPa Calm     81 % 0.0 mm 0.0 W/m2 CLR
08:10 3.9 °C 0.9 °C 1029.0 hPa Calm     81 % 0.0 mm 0.0 W/m2 CLR
08:15 3.9 °C 0.9 °C 1029.0 hPa Calm     81 % 0.0 mm 0.0 W/m2 OVC
08:20 3.9 °C 1.3 °C 1029.0 hPa SSE 8.0 km/h 8.0 km/h 83 % 0.0 mm 0.0 W/m2 OVC
08:25 3.3 °C 0.6 °C 1029.0 hPa Calm     82 % 0.0 mm 7.0 W/m2 BKN
08:30 3.3 °C 0.6 °C 1029.0 hPa Calm     82 % 0.0 mm 9.0 W/m2 BKN
08:35 3.3 °C 0.7 °C 1029.0 hPa Calm     83 % 0.0 mm 12.0 W/m2 BKN
08:40 3.3 °C 0.7 °C 1029.0 hPa SSE 5.6 km/h 5.6 km/h 83 % 0.0 mm 14.0 W/m2 BKN
08:45 3.3 °C 0.7 °C 1029.0 hPa Calm     83 % 0.0 mm 16.0 W/m2 BKN
08:50 3.3 °C 0.7 °C 1029.3 hPa Calm     83 % 0.0 mm 21.0 W/m2 BKN
09:00 3.3 °C 0.7 °C 1029.0 hPa Calm     83 % 0.0 mm 37.0 W/m2 BKN
09:05 3.3 °C 0.6 °C 1029.3 hPa Calm     82 % 0.0 mm 46.0 W/m2 BKN
09:10 3.3 °C 0.2 °C 1029.3 hPa Calm     80 % 0.0 mm 54.0 W/m2 SCT
09:15 3.9 °C 0.6 °C 1029.3 hPa Calm     79 % 0.0 mm 79.0 W/m2 FEW
09:20 3.9 °C 0.2 °C 1029.3 hPa Calm     77 % 0.0 mm 79.0 W/m2 CLR
09:25 4.4 °C 0.6 °C 1029.3 hPa Calm     76 % 0.0 mm 113.0 W/m2 CLR
09:30 4.4 °C 0.6 °C 1029.3 hPa Calm     76 % 0.0 mm 127.0 W/m2 CLR
09:31 4.4 °C 0.6 °C 1029.3 hPa Calm     76 % 0.0 mm 134.0 W/m2 CLR
09:36 5.0 °C 0.9 °C 1029.3 hPa Calm     75 % 0.0 mm 149.0 W/m2 CLR
09:41 5.6 °C 1.3 °C 1029.7 hPa Calm     74 % 0.0 mm 167.0 W/m2 CLR
09:46 6.1 °C 1.6 °C 1029.7 hPa Calm     73 % 0.0 mm 111.0 W/m2 CLR
09:51 7.2 °C 2.5 °C 1029.7 hPa Calm     72 % 0.0 mm 204.0 W/m2 CLR
09:56 8.3 °C 3.4 °C 1029.7 hPa Calm     71 % 0.0 mm 220.0 W/m2 CLR
10:01 8.9 °C 3.9 °C 1030.0 hPa Calm     71 % 0.0 mm 236.0 W/m2 CLR
10:06 9.4 °C 4.2 °C 1029.7 hPa Calm     70 % 0.0 mm 246.0 W/m2 CLR
10:11 10.0 °C 4.2 °C 1030.0 hPa South 18.5 km/h 18.5 km/h 67 % 0.0 mm 264.0 W/m2 CLR
10:16 10.6 °C 4.4 °C 1030.0 hPa SW 18.5 km/h 18.5 km/h 66 % 0.0 mm 279.0 W/m2 CLR
10:21 11.7 °C 5.5 °C 1030.0 hPa SW 16.7 km/h 16.7 km/h 66 % 0.0 mm 294.0 W/m2 CLR
10:26 12.2 °C 5.8 °C 1029.7 hPa WSW 19.3 km/h 19.3 km/h 65 % 0.0 mm 306.0 W/m2 CLR
10:31 12.8 °C 6.1 °C 1030.0 hPa SSW 19.3 km/h 19.3 km/h 64 % 0.0 mm 320.0 W/m2 CLR
10:36 12.8 °C 6.1 °C 1030.0 hPa SW 19.3 km/h 19.3 km/h 64 % 0.0 mm 334.0 W/m2 CLR
10:41 13.3 °C 6.7 °C 1030.0 hPa SW 22.2 km/h 22.2 km/h 64 % 0.0 mm 348.0 W/m2 CLR
10:46 13.3 °C 6.4 °C 1029.7 hPa SW 18.5 km/h 18.5 km/h 63 % 0.0 mm 359.0 W/m2 CLR
10:51 13.3 °C 6.2 °C 1029.7 hPa SW 25.7 km/h 25.7 km/h 62 % 0.0 mm 371.0 W/m2 CLR
10:56 13.9 °C 6.7 °C 1030.0 hPa SW 27.4 km/h 27.4 km/h 62 % 0.0 mm 381.0 W/m2 CLR
11:01 13.9 °C 6.7 °C 1030.0 hPa SW 24.1 km/h 24.1 km/h 62 % 0.0 mm 396.0 W/m2 CLR
11:06 13.9 °C 6.7 °C 1030.0 hPa SW 18.5 km/h 18.5 km/h 62 % 0.0 mm 406.0 W/m2 CLR
11:11 13.9 °C 6.5 °C 1030.0 hPa SW 20.9 km/h 20.9 km/h 61 % 0.0 mm 418.0 W/m2 CLR
11:12 13.9 °C 6.5 °C 1030.0 hPa SW 25.9 km/h 25.9 km/h 61 % 0.0 mm 420.0 W/m2 CLR
11:17 13.9 °C 6.5 °C 1030.0 hPa SSW 16.7 km/h 16.7 km/h 61 % 0.0 mm 432.0 W/m2 CLR
11:22 14.4 °C 7.0 °C 1030.0 hPa SSW 20.4 km/h 20.4 km/h 61 % 0.0 mm 443.0 W/m2 CLR
11:27 14.4 °C 6.8 °C 1030.0 hPa WSW 19.3 km/h 19.3 km/h 60 % 0.0 mm 455.0 W/m2 CLR
11:32 14.4 °C 6.8 °C 1030.0 hPa SW 20.4 km/h 20.4 km/h 60 % 0.0 mm 464.0 W/m2 CLR
11:33 14.4 °C 6.8 °C 1030.0 hPa WSW 24.1 km/h 24.1 km/h 60 % 0.0 mm 466.0 W/m2 CLR
11:38 14.4 °C 6.8 °C 1030.0 hPa SW 24.1 km/h 24.1 km/h 60 % 0.0 mm 476.0 W/m2 CLR
11:43 14.4 °C 6.8 °C 1030.0 hPa WSW 18.5 km/h 18.5 km/h 60 % 0.0 mm 487.0 W/m2 CLR
11:48 15.0 °C 7.1 °C 1029.7 hPa WSW 18.5 km/h 18.5 km/h 59 % 0.0 mm 496.0 W/m2 CLR
11:53 15.0 °C 6.8 °C 1029.7 hPa SSW 18.5 km/h 18.5 km/h 58 % 0.0 mm 503.0 W/m2 CLR
11:58 15.0 °C 7.1 °C 1029.7 hPa SW 18.5 km/h 18.5 km/h 59 % 0.0 mm 513.0 W/m2 CLR
12:03 15.0 °C 6.6 °C 1029.7 hPa SW 18.5 km/h 19.3 km/h 57 % 0.0 mm 520.0 W/m2 CLR
12:08 15.6 °C 6.6 °C 1029.7 hPa SSW 20.4 km/h 20.4 km/h 55 % 0.0 mm 526.0 W/m2 CLR
12:13 15.6 °C 6.8 °C 1029.7 hPa SW 16.7 km/h 16.7 km/h 56 % 0.0 mm 534.0 W/m2 CLR
12:18 16.1 °C 6.8 °C 1029.7 hPa SW 29.6 km/h 29.6 km/h 54 % 0.0 mm 545.0 W/m2 CLR
12:23 16.7 °C 7.1 °C 1029.7 hPa SW 16.7 km/h 16.7 km/h 53 % 0.0 mm 548.0 W/m2 CLR
12:24 16.1 °C 6.5 °C 1029.3 hPa SSW 22.2 km/h 22.2 km/h 53 % 0.0 mm 550.0 W/m2 CLR
12:29 16.1 °C 6.8 °C 1029.3 hPa SW 18.5 km/h 18.5 km/h 54 % 0.0 mm 555.0 W/m2 CLR
12:34 16.7 °C 6.8 °C 1029.3 hPa SSW 14.8 km/h 14.8 km/h 52 % 0.0 mm 563.0 W/m2 CLR
12:39 16.7 °C 6.5 °C 1029.3 hPa SW 20.4 km/h 20.4 km/h 51 % 0.0 mm 570.0 W/m2 CLR
12:44 17.2 °C 7.0 °C 1029.3 hPa WSW 22.2 km/h 22.2 km/h 51 % 0.0 mm 573.0 W/m2 CLR
12:50 17.2 °C 6.7 °C 1029.0 hPa SSW 22.2 km/h 22.2 km/h 50 % 0.0 mm 577.0 W/m2 CLR
12:55 17.2 °C 6.4 °C 1029.0 hPa WSW 20.4 km/h 20.4 km/h 49 % 0.0 mm 582.0 W/m2 CLR
13:00 17.8 °C 6.6 °C 1029.0 hPa West 24.1 km/h 24.1 km/h 48 % 0.0 mm 584.0 W/m2 CLR
13:05 17.8 °C 6.6 °C 1028.7 hPa SSW 20.4 km/h 20.4 km/h 48 % 0.0 mm 591.0 W/m2 CLR
13:10 17.8 °C 6.3 °C 1028.7 hPa WSW 18.5 km/h 18.5 km/h 47 % 0.0 mm 594.0 W/m2 CLR
13:15 17.8 °C 6.3 °C 1028.7 hPa SW 22.2 km/h 22.2 km/h 47 % 0.0 mm 596.0 W/m2 CLR
13:20 17.8 °C 6.0 °C 1028.7 hPa SW 18.5 km/h 18.5 km/h 46 % 0.0 mm 599.0 W/m2 CLR
13:25 18.3 °C 6.2 °C 1028.7 hPa SW 16.7 km/h 16.7 km/h 45 % 0.0 mm 599.0 W/m2 CLR
13:30 18.3 °C 6.2 °C 1028.7 hPa SSW 20.4 km/h 20.4 km/h 45 % 0.0 mm 601.0 W/m2 CLR
13:35 18.3 °C 6.2 °C 1028.7 hPa WSW 18.5 km/h 18.5 km/h 45 % 0.0 mm 605.0 W/m2 CLR
13:40 18.9 °C 6.7 °C 1028.7 hPa SW 20.9 km/h 20.9 km/h 45 % 0.0 mm 605.0 W/m2 CLR
13:45 18.3 °C 5.8 °C 1028.3 hPa SSW 18.5 km/h 18.5 km/h 44 % 0.0 mm 603.0 W/m2 CLR
13:50 19.4 °C 6.9 °C 1028.3 hPa SW 18.5 km/h 18.5 km/h 44 % 0.0 mm 605.0 W/m2 CLR
13:55 19.4 °C 6.6 °C 1028.3 hPa SW 24.1 km/h 24.1 km/h 43 % 0.0 mm 603.0 W/m2 CLR
14:00 19.4 °C 6.6 °C 1028.3 hPa WSW 24.1 km/h 24.1 km/h 43 % 0.0 mm 605.0 W/m2 CLR
14:05 19.4 °C 6.6 °C 1028.0 hPa WSW 20.4 km/h 20.4 km/h 43 % 0.0 mm 601.0 W/m2 CLR
14:10 18.9 °C 6.1 °C 1028.0 hPa SW 14.8 km/h 14.8 km/h 43 % 0.0 mm 599.0 W/m2 CLR
14:15 19.4 °C 6.6 °C 1028.0 hPa SSW 22.2 km/h 22.2 km/h 43 % 0.0 mm 599.0 W/m2 CLR
14:20 19.4 °C 5.8 °C 1027.7 hPa West 13.0 km/h 13.0 km/h 41 % 0.0 mm 598.0 W/m2 CLR
14:25 18.9 °C 4.6 °C 1027.7 hPa SSW 22.2 km/h 22.2 km/h 39 % 0.0 mm 594.0 W/m2 CLR
14:30 19.4 °C 5.1 °C 1027.7 hPa SW 20.4 km/h 20.4 km/h 39 % 0.0 mm 592.0 W/m2 CLR
14:35 20.0 °C 6.0 °C 1027.3 hPa South 7.4 km/h 7.4 km/h 40 % 0.0 mm 585.0 W/m2 CLR
14:40 20.0 °C 5.6 °C 1027.7 hPa South 18.5 km/h 18.5 km/h 39 % 0.0 mm 580.0 W/m2 CLR
14:45 19.4 °C 5.5 °C 1027.7 hPa SW 19.3 km/h 19.3 km/h 40 % 0.0 mm 577.0 W/m2 CLR
14:50 20.0 °C 5.6 °C 1027.3 hPa West 20.4 km/h 20.4 km/h 39 % 0.0 mm 571.0 W/m2 CLR
14:55 20.0 °C 5.6 °C 1027.3 hPa SW 17.7 km/h 17.7 km/h 39 % 0.0 mm 566.0 W/m2 CLR
15:00 20.0 °C 5.6 °C 1027.3 hPa WSW 17.7 km/h 17.7 km/h 39 % 0.0 mm 561.0 W/m2 CLR
15:05 20.0 °C 5.6 °C 1027.3 hPa SW 18.5 km/h 18.5 km/h 39 % 0.0 mm 555.0 W/m2 CLR
15:10 20.0 °C 5.2 °C 1027.3 hPa SW 14.8 km/h 15.0 km/h 38 % 0.0 mm 550.0 W/m2 CLR
15:15 20.6 °C 6.1 °C 1027.0 hPa SW 12.9 km/h 12.9 km/h 39 % 0.0 mm 543.0 W/m2 CLR
15:20 20.6 °C 5.7 °C 1027.0 hPa SW 14.8 km/h 14.8 km/h 38 % 0.0 mm 534.0 W/m2 CLR
15:25 20.6 °C 6.1 °C 1027.0 hPa WSW 5.6 km/h 5.6 km/h 39 % 0.0 mm 529.0 W/m2 CLR
15:30 20.0 °C 5.2 °C 1027.0 hPa SW 18.5 km/h 18.5 km/h 38 % 0.0 mm 520.0 W/m2 CLR
15:35 20.6 °C 6.1 °C 1027.0 hPa SSW 7.4 km/h 7.4 km/h 39 % 0.0 mm 513.0 W/m2 CLR
15:40 20.6 °C 5.3 °C 1027.0 hPa WSW 14.8 km/h 14.8 km/h 37 % 0.0 mm 506.0 W/m2 CLR
15:45 20.6 °C 5.7 °C 1026.6 hPa SW 16.7 km/h 16.7 km/h 38 % 0.0 mm 494.0 W/m2 CLR
15:50 20.6 °C 4.9 °C 1026.6 hPa WSW 24.1 km/h 24.1 km/h 36 % 0.0 mm 485.0 W/m2 CLR
15:55 20.6 °C 4.6 °C 1026.6 hPa West 22.2 km/h 22.2 km/h 35 % 0.0 mm 478.0 W/m2 CLR
16:00 20.6 °C 4.6 °C 1026.6 hPa SW 22.2 km/h 22.2 km/h 35 % 0.0 mm 466.0 W/m2 CLR
16:05 20.6 °C 4.9 °C 1026.6 hPa SW 22.2 km/h 22.2 km/h 36 % 0.0 mm 455.0 W/m2 CLR
16:10 20.6 °C 4.9 °C 1026.6 hPa WSW 18.5 km/h 18.5 km/h 36 % 0.0 mm 445.0 W/m2 CLR
16:11 20.6 °C 4.9 °C 1026.6 hPa WSW 18.5 km/h 18.5 km/h 36 % 0.0 mm 445.0 W/m2 CLR
16:16 20.6 °C 4.9 °C 1026.6 hPa SSW 18.5 km/h 18.5 km/h 36 % 0.0 mm 432.0 W/m2 CLR
16:21 21.1 °C 5.4 °C 1026.6 hPa WNW 18.5 km/h 18.5 km/h 36 % 0.0 mm 424.0 W/m2 CLR
16:26 20.6 °C 4.1 °C 1026.3 hPa WSW 20.9 km/h 20.9 km/h 34 % 0.0 mm 411.0 W/m2 CLR
16:31 20.6 °C 4.1 °C 1026.3 hPa WSW 20.4 km/h 20.4 km/h 34 % 0.0 mm 396.0 W/m2 CLR
16:36 20.6 °C 4.1 °C 1026.3 hPa WSW 20.4 km/h 20.4 km/h 34 % 0.0 mm 385.0 W/m2 CLR
16:41 20.6 °C 4.1 °C 1026.3 hPa West 22.2 km/h 22.2 km/h 34 % 0.0 mm 373.0 W/m2 CLR
16:46 20.6 °C 4.1 °C 1026.3 hPa West 22.2 km/h 22.2 km/h 34 % 0.0 mm 359.0 W/m2 CLR
16:51 20.6 °C 4.1 °C 1026.3 hPa WSW 25.9 km/h 25.9 km/h 34 % 0.0 mm 350.0 W/m2 CLR
16:56 20.6 °C 4.1 °C 1026.3 hPa SW 20.4 km/h 20.4 km/h 34 % 0.0 mm 334.0 W/m2 CLR
17:01 20.6 °C 3.7 °C 1026.3 hPa West 16.7 km/h 16.7 km/h 33 % 0.0 mm 322.0 W/m2 CLR
17:06 20.6 °C 3.3 °C 1026.3 hPa SW 31.5 km/h 31.5 km/h 32 % 0.0 mm 309.0 W/m2 CLR
17:11 20.6 °C 3.7 °C 1026.3 hPa WSW 18.5 km/h 18.5 km/h 33 % 0.0 mm 294.0 W/m2 CLR
17:16 20.6 °C 4.1 °C 1026.3 hPa West 19.3 km/h 19.3 km/h 34 % 0.0 mm 281.0 W/m2 CLR
17:21 20.0 °C 3.7 °C 1026.3 hPa West 20.9 km/h 20.9 km/h 34 % 0.0 mm 267.0 W/m2 CLR
17:26 20.0 °C 3.7 °C 1026.3 hPa West 20.4 km/h 20.4 km/h 34 % 0.0 mm 251.0 W/m2 CLR
17:31 19.4 °C 3.6 °C 1026.3 hPa SW 18.5 km/h 18.5 km/h 35 % 0.0 mm 232.0 W/m2 CLR
17:36 20.0 °C 4.1 °C 1026.3 hPa WSW 16.7 km/h 16.7 km/h 35 % 0.0 mm 214.0 W/m2 CLR
17:41 19.4 °C 3.6 °C 1026.3 hPa WSW 18.5 km/h 18.5 km/h 35 % 0.0 mm 199.0 W/m2 CLR
17:46 19.4 °C 3.6 °C 1026.3 hPa WSW 14.8 km/h 14.8 km/h 35 % 0.0 mm 181.0 W/m2 CLR
17:51 19.4 °C 3.9 °C 1026.3 hPa WSW 18.5 km/h 18.5 km/h 36 % 0.0 mm 162.0 W/m2 CLR
17:56 19.4 °C 3.6 °C 1026.3 hPa WSW 18.5 km/h 19.0 km/h 35 % 0.0 mm 151.0 W/m2 CLR
18:01 19.4 °C 3.9 °C 1026.3 hPa SW 20.4 km/h 20.4 km/h 36 % 0.0 mm 130.0 W/m2 CLR
18:06 18.9 °C 3.9 °C 1026.3 hPa SW 14.8 km/h 14.8 km/h 37 % 0.0 mm 113.0 W/m2 CLR
18:11 18.9 °C 3.5 °C 1026.3 hPa SW 22.2 km/h 22.2 km/h 36 % 0.0 mm 100.0 W/m2 CLR
18:16 18.9 °C 3.9 °C 1026.3 hPa SSW 11.1 km/h 11.1 km/h 37 % 0.0 mm 79.0 W/m2 FEW
18:21 18.9 °C 3.9 °C 1026.3 hPa SW 1.9 km/h   37 % 0.0 mm 58.0 W/m2 SCT
18:26 18.9 °C 4.3 °C 1026.3 hPa SSW 5.6 km/h 5.6 km/h 38 % 0.0 mm 53.0 W/m2 SCT
18:31 18.3 °C 3.8 °C 1026.3 hPa SW 13.0 km/h 13.0 km/h 38 % 0.0 mm 44.0 W/m2 SCT
18:36 18.3 °C 3.8 °C 1026.3 hPa South 5.6 km/h 5.6 km/h 38 % 0.0 mm 33.0 W/m2 BKN
18:41 17.8 °C 3.6 °C 1026.3 hPa SSW 3.7 km/h 3.7 km/h 39 % 0.0 mm 23.0 W/m2 BKN
18:52 15.6 °C 2.3 °C 1026.3 hPa SSW 3.7 km/h 3.7 km/h 41 % 0.0 mm 11.0 W/m2 BKN
18:57 15.0 °C 1.8 °C 1026.3 hPa SSW 5.6 km/h 5.6 km/h 41 % 0.0 mm 9.0 W/m2 BKN
19:03 14.4 °C 1.7 °C 1026.3 hPa SSW 5.6 km/h 5.6 km/h 42 % 0.0 mm 7.0 W/m2 BKN
19:07 13.9 °C 1.2 °C 1026.3 hPa SSW 1.9 km/h   42 % 0.0 mm 5.0 W/m2 OVC
19:13 13.3 °C 1.0 °C 1026.3 hPa Calm     43 % 0.0 mm 0.0 W/m2 OVC
19:18 13.3 °C 1.3 °C 1026.3 hPa Calm     44 % 0.0 mm 0.0 W/m2 CLR
19:23 12.8 °C 1.1 °C 1026.3 hPa Calm     45 % 0.0 mm 0.0 W/m2 CLR
19:28 12.2 °C 0.6 °C 1026.3 hPa Calm     45 % 0.0 mm 0.0 W/m2 CLR
19:33 12.2 °C 0.9 °C 1026.3 hPa Calm     46 % 0.0 mm 0.0 W/m2 CLR
19:38 11.7 °C 0.4 °C 1026.6 hPa Calm     46 % 0.0 mm 0.0 W/m2 CLR
19:43 11.7 °C 0.7 °C 1026.6 hPa Calm     47 % 0.0 mm 0.0 W/m2 CLR
19:48 11.7 °C 0.7 °C 1026.6 hPa Calm     47 % 0.0 mm 0.0 W/m2 CLR
19:53 11.1 °C 0.5 °C 1026.6 hPa Calm     48 % 0.0 mm 0.0 W/m2 CLR
19:58 11.1 °C 0.8 °C 1026.6 hPa Calm     49 % 0.0 mm 0.0 W/m2 CLR
20:03 10.6 °C 0.6 °C 1026.6 hPa Calm     50 % 0.0 mm 0.0 W/m2 CLR
20:08 10.6 °C 0.6 °C 1026.6 hPa Calm     50 % 0.0 mm 0.0 W/m2 CLR
20:13 10.0 °C 0.3 °C 1026.6 hPa Calm     51 % 0.0 mm 0.0 W/m2 CLR
20:18 10.0 °C 0.6 °C 1026.6 hPa Calm     52 % 0.0 mm 0.0 W/m2 CLR
20:23 9.4 °C 0.3 °C 1026.6 hPa Calm     53 % 0.0 mm 0.0 W/m2 CLR
20:28 9.4 °C 0.6 °C 1027.0 hPa Calm     54 % 0.0 mm 0.0 W/m2 CLR
20:33 9.4 °C 0.6 °C 1027.0 hPa Calm     54 % 0.0 mm 0.0 W/m2 CLR
20:38 8.9 °C 0.1 °C 1027.0 hPa Calm     54 % 0.0 mm 0.0 W/m2 CLR
20:43 8.9 °C 0.1 °C 1027.0 hPa Calm     54 % 0.0 mm 0.0 W/m2 CLR
20:48 8.9 °C 0.3 °C 1027.0 hPa Calm     55 % 0.0 mm 0.0 W/m2 CLR
20:53 8.9 °C 0.3 °C 1027.0 hPa Calm     55 % 0.0 mm 0.0 W/m2 CLR
20:58 8.3 °C -0.2 °C 1027.0 hPa Calm     55 % 0.0 mm 0.0 W/m2 CLR
21:03 8.3 °C 0.3 °C 1027.0 hPa Calm     57 % 0.0 mm 0.0 W/m2 CLR
21:08 8.3 °C 0.3 °C 1027.0 hPa Calm     57 % 0.0 mm 0.0 W/m2 CLR
21:13 8.3 °C 0.6 °C 1027.0 hPa Calm     58 % 0.0 mm 0.0 W/m2 CLR
21:18 8.9 °C 1.3 °C 1027.0 hPa Calm     59 % 0.0 mm 0.0 W/m2 CLR
21:23 9.4 °C 1.8 °C 1027.0 hPa Calm     59 % 0.0 mm 0.0 W/m2 CLR
21:28 9.4 °C 1.8 °C 1027.0 hPa Calm     59 % 0.0 mm 0.0 W/m2 CLR
21:33 9.4 °C 1.8 °C 1027.0 hPa Calm     59 % 0.0 mm 0.0 W/m2 CLR
21:38 9.4 °C 1.8 °C 1027.0 hPa Calm     59 % 0.0 mm 0.0 W/m2 CLR
21:43 9.4 °C 2.1 °C 1027.0 hPa Calm     60 % 0.0 mm 0.0 W/m2 CLR
21:48 8.9 °C 1.3 °C 1027.0 hPa Calm     59 % 0.0 mm 0.0 W/m2 CLR
21:53 9.4 °C 2.1 °C 1027.0 hPa Calm     60 % 0.0 mm 0.0 W/m2 CLR
21:58 9.4 °C 2.1 °C 1027.0 hPa Calm     60 % 0.0 mm 0.0 W/m2 CLR
22:03 8.9 °C 1.6 °C 1027.0 hPa Calm     60 % 0.0 mm 0.0 W/m2 CLR
22:08 8.9 °C 1.6 °C 1027.0 hPa Calm     60 % 0.0 mm 0.0 W/m2 CLR
22:13 8.9 °C 1.6 °C 1027.0 hPa Calm     60 % 0.0 mm 0.0 W/m2 CLR
22:18 8.9 °C 1.6 °C 1027.0 hPa Calm     60 % 0.0 mm 0.0 W/m2 CLR
22:19 8.9 °C 1.6 °C 1027.0 hPa Calm     60 % 0.0 mm 0.0 W/m2 CLR
22:24 8.9 °C 1.6 °C 1027.0 hPa Calm     60 % 0.0 mm 0.0 W/m2 CLR
22:29 8.9 °C 1.6 °C 1027.0 hPa Calm     60 % 0.0 mm 0.0 W/m2 CLR
22:34 8.3 °C 1.0 °C 1027.0 hPa Calm     60 % 0.0 mm 0.0 W/m2 CLR
22:39 8.3 °C 0.8 °C 1027.0 hPa Calm     59 % 0.0 mm 0.0 W/m2 CLR
22:44 8.3 °C 0.6 °C 1027.3 hPa Calm     58 % 0.0 mm 0.0 W/m2 CLR
22:49 8.3 °C 0.1 °C 1027.3 hPa Calm     56 % 0.0 mm 0.0 W/m2 CLR
22:54 8.3 °C 0.1 °C 1027.3 hPa Calm     56 % 0.0 mm 0.0 W/m2 CLR
22:59 7.8 °C -0.4 °C 1027.3 hPa Calm     56 % 0.0 mm 0.0 W/m2 CLR
23:04 7.8 °C -0.7 °C 1027.3 hPa Calm     55 % 0.0 mm 0.0 W/m2 CLR
23:09 7.8 °C -0.7 °C 1027.3 hPa Calm     55 % 0.0 mm 0.0 W/m2 CLR
23:14 7.8 °C -0.7 °C 1027.3 hPa Calm     55 % 0.0 mm 0.0 W/m2 CLR
23:19 7.8 °C -0.7 °C 1027.3 hPa Calm     55 % 0.0 mm 0.0 W/m2 CLR
23:24 7.2 °C -1.2 °C 1027.3 hPa Calm     55 % 0.0 mm 0.0 W/m2 CLR
23:29 7.2 °C -1.5 °C 1027.7 hPa Calm     54 % 0.0 mm 0.0 W/m2 CLR
23:34 7.2 °C -1.2 °C 1027.7 hPa Calm     55 % 0.0 mm 0.0 W/m2 CLR
23:39 7.2 °C -1.2 °C 1027.7 hPa Calm     55 % 0.0 mm 0.0 W/m2 CLR
23:44 7.2 °C -1.0 °C 1027.7 hPa Calm     56 % 0.0 mm 0.0 W/m2 CLR
23:49 6.7 °C -1.3 °C 1027.7 hPa Calm     57 % 0.0 mm 0.0 W/m2 CLR
23:54 6.7 °C -1.5 °C 1027.7 hPa Calm     56 % 0.0 mm 0.0 W/m2 CLR
23:59 6.7 °C -1.3 °C 1027.7 hPa Calm     57 % 0.0 mm 0.0 W/m2 CLR
Lo Temps de Massalio
Compliments of Weather Underground - 1.25 mb